• In Spain
  • List of Countries
  • For 7 days
  • Water Temperature
  • Satellite Maps
  • Weather Map
  • Weather Widgets
  • user-avatar
    Login

    Hourly Weather Adelaide

    Today, 25 November, Saturday

    Time Temperature Precipitation Wind Pressure Humidity
    00:00 +19°C° 0 mm 3 mps 755 mmHg 81%
    01:00 +18°C° 0 mm 3 mps 755 mmHg 83%
    02:00 +18°C° 0 mm 3 mps 755 mmHg 85%
    03:00 +18°C° 0 mm 2 mps 755 mmHg 84%
    04:00 +19°C° 0 mm 2 mps 755 mmHg 82%
    05:00 +20°C° 0 mm 2 mps 755 mmHg 79%
    06:00 +20°C° 0 mm 2 mps 755 mmHg 77%
    07:00 +23°C° 0.1 mm 2 mps 755 mmHg 71%
    08:00 +25°C° 0.1 mm 2 mps 755 mmHg 65%
    09:00 +26°C° 0 mm 3 mps 755 mmHg 61%
    10:00 +27°C° 0.3 mm 3 mps 755 mmHg 58%
    11:00 +28°C° 0.3 mm 3 mps 755 mmHg 54%
    12:00 +28°C° 0.3 mm 3 mps 754 mmHg 51%
    13:00 +28°C° 0.6 mm 4 mps 754 mmHg 52%
    14:00 +28°C° 0.6 mm 4 mps 754 mmHg 53%
    15:00 +28°C° 0.6 mm 4 mps 754 mmHg 54%
    16:00 +27°C° 0.2 mm 4 mps 754 mmHg 59%
    17:00 +25°C° 0.2 mm 4 mps 754 mmHg 65%
    18:00 +23°C° 0.2 mm 4 mps 754 mmHg 70%
    19:00 +22°C° 0 mm 4 mps 755 mmHg 75%
    20:00 +21°C° 0 mm 4 mps 755 mmHg 80%
    21:00 +20°C° 0 mm 3 mps 756 mmHg 85%
    22:00 +19°C° 0 mm 3 mps 755 mmHg 86%
    23:00 +19°C° 0 mm 3 mps 755 mmHg 87%

    Tomorrow, 26 November, Sunday

    Time Temperature Precipitation Wind Pressure Humidity
    00:00 +18°C° 0 mm 4 mps 755 mmHg 89%
    01:00 +18°C° 0 mm 3 mps 755 mmHg 89%
    02:00 +18°C° 0 mm 3 mps 755 mmHg 90%
    03:00 +18°C° 0 mm 3 mps 755 mmHg 90%
    04:00 +18°C° 0 mm 4 mps 755 mmHg 89%
    05:00 +18°C° 0 mm 4 mps 755 mmHg 87%
    06:00 +18°C° 0 mm 4 mps 756 mmHg 86%
    07:00 +19°C° 0 mm 4 mps 756 mmHg 82%
    08:00 +20°C° 0 mm 4 mps 756 mmHg 77%
    09:00 +21°C° 0 mm 3 mps 757 mmHg 73%
    10:00 +22°C° 0 mm 4 mps 757 mmHg 70%
    11:00 +22°C° 0 mm 5 mps 756 mmHg 66%
    12:00 +23°C° 0 mm 5 mps 756 mmHg 63%
    13:00 +23°C° 0 mm 5 mps 756 mmHg 63%
    14:00 +23°C° 0 mm 6 mps 756 mmHg 63%
    15:00 +23°C° 0 mm 6 mps 756 mmHg 63%
    16:00 +21°C° 0 mm 6 mps 756 mmHg 67%
    17:00 +20°C° 0 mm 5 mps 757 mmHg 70%
    18:00 +19°C° 0 mm 5 mps 757 mmHg 74%
    19:00 +19°C° 0 mm 5 mps 757 mmHg 76%
    20:00 +17°C° 0 mm 5 mps 758 mmHg 79%
    21:00 +17°C° 0 mm 4 mps 758 mmHg 82%
    22:00 +17°C° 0 mm 4 mps 758 mmHg 83%
    23:00 +15°C° 0 mm 4 mps 758 mmHg 84%

    Day after tomorrow, 27 November, Monday

    Time Temperature Precipitation Wind Pressure Humidity
    00:00 +15°C° 0 mm 4 mps 758 mmHg 85%
    01:00 +14°C° 0 mm 4 mps 757 mmHg 86%
    02:00 +14°C° 0 mm 4 mps 757 mmHg 87%
    03:00 +13°C° 0 mm 4 mps 757 mmHg 88%
    04:00 +14°C° 0 mm 4 mps 757 mmHg 85%
    05:00 +14°C° 0 mm 4 mps 758 mmHg 82%
    06:00 +16°C° 0 mm 3 mps 758 mmHg 78%
    07:00 +18°C° 0 mm 3 mps 758 mmHg 68%
    08:00 +20°C° 0 mm 3 mps 758 mmHg 57%
    09:00 +23°C° 0 mm 2 mps 758 mmHg 47%
    10:00 +25°C° 0 mm 3 mps 757 mmHg 42%
    11:00 +26°C° 0 mm 3 mps 757 mmHg 37%
    12:00 +28°C° 0 mm 4 mps 757 mmHg 32%
    13:00 +28°C° 0 mm 4 mps 756 mmHg 32%
    14:00 +28°C° 0 mm 5 mps 756 mmHg 33%
    15:00 +28°C° 0 mm 5 mps 755 mmHg 33%
    16:00 +27°C° 0 mm 5 mps 756 mmHg 39%
    17:00 +24°C° 0 mm 6 mps 756 mmHg 46%
    18:00 +22°C° 0 mm 6 mps 756 mmHg 52%
    19:00 +21°C° 0 mm 5 mps 756 mmHg 58%
    20:00 +20°C° 0 mm 5 mps 757 mmHg 63%
    21:00 +18°C° 0 mm 4 mps 757 mmHg 68%
    22:00 +18°C° 0 mm 4 mps 757 mmHg 69%
    23:00 +18°C° 0 mm 3 mps 756 mmHg 70%

    28 November, Tuesday

    Time Temperature Precipitation Wind Pressure Humidity
    00:00 +18°C° 0 mm 3 mps 756 mmHg 71%
    01:00 +18°C° 0 mm 3 mps 756 mmHg 70%
    02:00 +18°C° 0 mm 3 mps 755 mmHg 68%
    03:00 +18°C° 0 mm 3 mps 755 mmHg 66%
    04:00 +19°C° 0 mm 3 mps 755 mmHg 63%
    05:00 +20°C° 0 mm 4 mps 755 mmHg 60%
    06:00 +22°C° 0 mm 4 mps 756 mmHg 57%
    07:00 +25°C° 0 mm 4 mps 756 mmHg 49%
    08:00 +28°C° 0 mm 4 mps 756 mmHg 41%
    09:00 +32°C° 0 mm 4 mps 756 mmHg 33%
    10:00 +34°C° 0 mm 3 mps 755 mmHg 29%
    11:00 +35°C° 0 mm 2 mps 755 mmHg 25%
    12:00 +36°C° 0 mm 1 mps 754 mmHg 21%
    13:00 +37°C° 0 mm 2 mps 754 mmHg 20%
    14:00 +37°C° 0 mm 2 mps 754 mmHg 20%
    15:00 +37°C° 0 mm 3 mps 753 mmHg 20%
    16:00 +36°C° 0 mm 3 mps 753 mmHg 23%
    17:00 +35°C° 0 mm 3 mps 753 mmHg 25%
    18:00 +33°C° 0 mm 4 mps 753 mmHg 28%
    19:00 +32°C° 0 mm 4 mps 753 mmHg 29%
    20:00 +29°C° 0 mm 4 mps 753 mmHg 31%
    21:00 +28°C° 0 mm 5 mps 754 mmHg 33%
    22:00 +27°C° 0 mm 4 mps 753 mmHg 32%
    23:00 +27°C° 0 mm 4 mps 753 mmHg 32%

    29 November, Wednesday

    Time Temperature Precipitation Wind Pressure Humidity
    00:00 +27°C° 0 mm 4 mps 753 mmHg 31%
    01:00 +27°C° 0 mm 4 mps 753 mmHg 29%
    02:00 +27°C° 0 mm 5 mps 753 mmHg 27%
    03:00 +27°C° 0 mm 5 mps 753 mmHg 25%
    04:00 +28°C° 0 mm 5 mps 753 mmHg 26%
    05:00 +29°C° 0 mm 5 mps 753 mmHg 27%
    06:00 +29°C° 0 mm 5 mps 753 mmHg 28%
    07:00 +33°C° 0 mm 5 mps 753 mmHg 25%
    08:00 +35°C° 0 mm 5 mps 753 mmHg 23%
    09:00 +37°C° 0 mm 4 mps 753 mmHg 20%
    10:00 +38°C° 0 mm 4 mps 753 mmHg 20%
    11:00 +40°C° 0 mm 4 mps 753 mmHg 20%
    12:00 +40°C° 0 mm 4 mps 753 mmHg 20%
    13:00 +38°C° 0 mm 4 mps 752 mmHg 21%
    14:00 +38°C° 0 mm 4 mps 752 mmHg 23%
    15:00 +37°C° 0 mm 4 mps 752 mmHg 25%
    16:00 +36°C° 0 mm 4 mps 752 mmHg 28%
    17:00 +34°C° 0 mm 4 mps 752 mmHg 31%
    18:00 +33°C° 0 mm 4 mps 752 mmHg 35%
    19:00 +31°C° 0 mm 3 mps 752 mmHg 37%
    20:00 +30°C° 0 mm 3 mps 753 mmHg 39%
    21:00 +29°C° 0 mm 2 mps 753 mmHg 42%
    22:00 +28°C° 0.1 mm 2 mps 753 mmHg 45%
    23:00 +27°C° 0.1 mm 2 mps 753 mmHg 48%

    30 November, Thursday

    Time Temperature Precipitation Wind Pressure Humidity
    00:00 +26°C° 0.1 mm 2 mps 752 mmHg 51%
    01:00 +25°C° 0.2 mm 2 mps 752 mmHg 55%
    02:00 +25°C° 0.2 mm 2 mps 752 mmHg 59%
    03:00 +24°C° 0.2 mm 2 mps 752 mmHg 62%
    04:00 +24°C° 0.5 mm 2 mps 753 mmHg 66%
    05:00 +22°C° 0.5 mm 3 mps 753 mmHg 69%
    06:00 +22°C° 0.5 mm 3 mps 754 mmHg 72%
    07:00 +23°C° 0 mm 4 mps 754 mmHg 70%
    08:00 +23°C° 0 mm 5 mps 754 mmHg 68%
    09:00 +25°C° 0 mm 5 mps 754 mmHg 66%
    10:00 +24°C° 0.1 mm 6 mps 754 mmHg 64%
    11:00 +26°C° 0.1 mm 6 mps 754 mmHg 62%
    12:00 +26°C° 0.1 mm 6 mps 754 mmHg 60%
    13:00 +26°C° 0 mm 6 mps 753 mmHg 60%
    14:00 +26°C° 0 mm 7 mps 753 mmHg 59%
    15:00 +26°C° 0 mm 7 mps 752 mmHg 59%
    16:00 +23°C° 0 mm 7 mps 753 mmHg 64%
    17:00 +21°C° 0 mm 7 mps 753 mmHg 68%
    18:00 +18°C° 0 mm 8 mps 754 mmHg 73%
    19:00 +18°C° 0 mm 8 mps 754 mmHg 74%
    20:00 +17°C° 0 mm 8 mps 755 mmHg 76%
    21:00 +16°C° 0 mm 8 mps 755 mmHg 77%
    22:00 +16°C° 0 mm 7 mps 755 mmHg 77%
    23:00 +16°C° 0 mm 7 mps 755 mmHg 77%
    Show more